Find Starlink 30885

NORAD ID: 58361 Int'l Des: 2023-177 Owner: SPXS Country: US Constellation: starlink operational
LEOCIRCULAR

Live Position

Loading 3D Globe...

About Starlink 30885

Description loading...

Upcoming Passes

Passes for default location (London). Set your location on the main map for personalized predictions.

Altitude History

Loading altitude history...

Two-Line Element Set

1 58361U 23177L 26120.83524560 .00002500 00000-0 10032-3 0 9993
2 58361 43.0025 56.0056 0001372 267.7963 92.2732 15.27583868136215
Epoch: Apr 30, 2026 • Age: 11 hours

Current Status

Altitude 482.3 km
Velocity 7.63 km/s
Sub-Earth Point 7.58°N, 96.15°E
Launch Date Nov 18, 2023
Age 2.4 years
Type internet

Technical Details

Classification Payload
Mass 730.00 kg
Dry Mass 700.00 kg
Total Mass 730.00 kg
Length 0.30 m
Diameter 4.10 m
Span 29.00 m
Shape Box + pan
Manufacturer SPXS
Bus Type Starlink V2M
Phase Status In Orbit
Owner/State SPXS/US

Most Searched